Flag for Kazakhstan Weather past 2 weeks in Qyzylorda, Kazakhstan

Now
86 °F

Passing clouds.


Feels Like: 83 °F
Forecast: 74 / 105 °F
Wind: 6 mph from Northeast

Location: Kzyl-Orda

Current Time: Aug 2, 2015 at 10:20:33 AM

Latest Report: Aug 2, 2015 at 9:30 AM


Visibility: N/A

Pressure: 29.86 "Hg

Humidity: 20%

Dew point: 41 °F

Location of QyzylordaLocation

Historic Weather in Qyzylorda — Graph

°F

Qyzylorda temperature yesterday

Maximum temperature yesterday: 102 °F (at 4:30 PM)
Minimum temperature yesterday: 64 °F (at 6:00 AM)
Average temperature yesterday: 87 °F

Past Weeks' High & Low Weather Summary

 TemperatureHumidityPressure
High102 °F (Aug 1, 4:30 PM)68% (Jul 27, 6:30 AM)29.92 "Hg (Jul 27, 6:30 AM)
Low59 °F (Jul 25, 6:30 AM)10% (Jul 31, 5:30 PM)29.56 "Hg (Jul 20, 12:30 PM)
Average82 °F28%29.76 "Hg
* Reported Jul 18 9:00 AM — Aug 2 9:00 AM, Qyzylorda, Weather by CustomWeather, © 2015

Note: Actual official high and low records may vary slightly from our data, if they occured in-between our weather recording intervals... More about our weather records

Advertising

Qyzylorda weather history for previous 24 hours

 ConditionsComfort  
Time TempWeatherWind HumidityBarometerVisibility
9:00 AM
Sun, Aug 2
81 °FPassing clouds.6 mph26%29.86 "HgN/A
8:30 AM79 °FSunny.6 mph26%29.86 "Hg10 mi
8:00 AM75 °FSunny.6 mph29%29.86 "Hg10 mi
7:30 AM73 °FSunny.3 mph31%29.86 "Hg10 mi
7:00 AM72 °FClear.6 mph31%29.86 "Hg10 mi
6:30 AM72 °FClear.8 mph31%29.86 "Hg10 mi
6:00 AM72 °FClear.6 mph29%29.83 "Hg10 mi
5:30 AM72 °FClear.6 mph29%29.83 "Hg10 mi
5:00 AM72 °FClear.3 mph29%29.83 "Hg10 mi
4:00 AM75 °FClear.8 mph25%29.83 "Hg10 mi
3:00 AM77 °FClear.6 mph22%29.83 "Hg10 mi
2:00 AM79 °FClear.6 mph21%29.83 "Hg10 mi
1:00 AM81 °FClear.6 mph20%29.83 "Hg10 mi
12:00 AM79 °FClear.8 mph24%29.83 "Hg10 mi
11:30 PM
Sat, Aug 1
81 °FClear.6 mph23%29.83 "Hg10 mi
11:00 PM81 °FClear.6 mph23%29.83 "Hg10 mi
10:30 PM84 °FClear.3 mph20%29.83 "Hg10 mi
10:00 PM88 °FSunny.3 mph17%29.83 "Hg10 mi
9:30 PM90 °FSunny.3 mph15%29.80 "Hg10 mi
9:00 PM95 °FSunny.6 mph11%29.80 "Hg10 mi
8:30 PM97 °FSunny.8 mph12%29.80 "Hg10 mi
8:00 PM99 °FSunny.8 mph11%29.80 "Hg10 mi
7:30 PM100 °FSunny.10 mph10%29.80 "Hg10 mi
7:00 PM100 °FSunny.13 mph10%29.80 "Hg10 mi
6:30 PM100 °FPassing clouds.10 mph11%29.80 "HgN/A
6:00 PM102 °FPassing clouds.10 mph10%29.80 "HgN/A
5:30 PM102 °FPassing clouds.15 mph10%29.80 "HgN/A
5:00 PM100 °FPassing clouds.13 mph10%29.80 "HgN/A
4:30 PM102 °FPassing clouds.10 mph10%29.80 "HgN/A
4:00 PM100 °FPassing clouds.10 mph11%29.80 "HgN/A
3:30 PM100 °FPassing clouds.13 mph11%29.80 "HgN/A
3:00 PM100 °FPassing clouds.13 mph10%29.80 "HgN/A
2:30 PM100 °FPassing clouds.13 mph10%29.83 "HgN/A
2:00 PM99 °FSunny.13 mph11%29.83 "Hg10 mi
1:30 PM100 °FPassing clouds.10 mph10%29.83 "HgN/A
1:00 PM99 °FPassing clouds.10 mph12%29.83 "HgN/A
12:30 PM97 °FPassing clouds.6 mph13%29.83 "HgN/A
12:00 PM95 °FPassing clouds.8 mph14%29.83 "HgN/A
11:30 AM95 °FPassing clouds.6 mph14%29.83 "HgN/A
11:00 AM91 °FPassing clouds.6 mph17%29.83 "HgN/A
10:30 AM88 °FSunny.6 mph21%29.83 "Hg10 mi
10:00 AM84 °FSunny.6 mph23%29.83 "Hg10 mi
Weather by CustomWeather, © 2015

See weather overviewHow to use our weather pages